Temperature
17 17 18 18 18 18 18 18 18 18 18 18 18 18 18 18 18 18 18 18 18 18 18 18 18 18 18 18 18 18 18 18 18 18 18 18 18 18 18 18 18 18 18
18 18 18 18 17 18 18 18 18 18 18 18 18 18 18 18 18 18 18 18 18 18 18 18 18 18 18 18 18 18 18 18 18 18 18 18 18 18 18 18 18 18 18
18 18 18 18 17 17 17 17 18 18 18 18 18 18 18 18 18 18 18 18 18 18 18 18 18 18 18 18 18 18 18 18 18 18 18 18 18 18 18 18 18 18 18
18 18 18 17 17 17 17 17 17 18 18 18 18 18 18 18 18 18 18 18 18 18 18 18 18 18 18 18 18 18 18 18 18 18 18 18 18 18 18 18 18 18 18
18 18 18 17 17 17 17 17 17 17 17 17 17 17 17 18 18 18 18 18 17 18 18 18 17 18 18 18 17 17 17 17 17 17 17 17 17 17 17 18 18 18 18
18 18 17 17 17 17 17 17 17 17 17 17 17 17 17 17 18 18 17 17 17 17 17 17 17 17 17 17 17 17 17 17 17 17 17 17 17 17 17 17 17 17 17
18 17 17 17 17 17 17 17 17 17 17 17 17 17 17 17 17 17 17 17 17 17 17 17 17 17 17 17 17 17 17 17 17 17 17 17 17 17 17 17 17 17 17
18 18 17 17 17 17 17 17 17 17 17 17 17 17 17 17 17 17 17 17 17 17 17 17 17 17 17 17 17 17 17 17 17 17 17 17 17 17 17 17 17 17 17
18 18 17 17 17 17 17 17 17 17 17 17 17 17 17 17 17 17 17 17 17 17 17 17 17 17 17 17 17 17 17 17 17 17 17 17 17 17 17 17 17 17 17
18 18 17 17 17 17 17 17 17 17 17 17 17 17 17 17 17 17 17 17 17 16 16 16 16 16 17 17 17 16 17 17 16 16 16 16 17 17 17 17 17 17 17
18 17 17 17 17 17 17 17 17 17 17 17 17 17 17 17 16 16 17 16 16 16 16 16 16 16 16 16 16 16 16 16 16 16 16 16 16 16 16 16 16 16 16
18 17 17 17 17 17 17 17 17 17 17 17 16 16 16 16 16 16 16 16 16 16 16 16 16 16 16 16 16 16 16 16 16 16 16 16 16 16 16 16 16 16 16
18 18 18 17 17 17 17 17 17 17 16 16 16 16 16 16 16 16 16 16 16 16 16 16 16 16 16 16 16 16 16 16 16 16 16 16 16 16 16 16 16 16 16
18 18 18 18 17 17 17 17 17 17 16 16 16 16 16 16 16 16 16 16 16 16 16 16 16 16 15 16 16 16 16 16 16 16 16 16 16 16 16 15 15 16 16
18 18 18 18 18 17 17 17 17 17 16 16 16 16 16 16 16 16 16 16 16 16 16 15 15 15 15 15 15 15 16 16 16 16 16 16 16 15 15 15 15 15 15
19 18 18 18 18 17 17 17 17 17 16 16 16 16 16 16 16 16 16 16 16 16 16 15 15 15 15 15 15 15 15 15 15 15 15 15 15 15 15 15 15 15 15
19 18 18 18 18 17 17 17 17 17 16 16 16 16 16 16 16 16 16 16 16 15 15 15 15 15 15 15 15 15 15 15 15 15 15 15 15 15 15 15 15 15 15
19 18 18 18 18 17 17 17 17 17 16 16 16 16 16 16 16 16 16 16 15 15 15 15 15 15 15 15 15 15 15 15 15 15 15 15 15 15 15 15 15 15 15
19 19 18 18 18 17 17 17 17 16 16 16 16 16 16 16 16 16 15 15 15 15 15 15 15 15 15 15 15 14 14 14 14 15 15 15 15 15 15 15 15 15 15
19 19 18 18 18 17 17 17 17 16 16 16 16 16 16 16 15 15 15 15 15 15 15 15 15 15 15 15 14 14 14 14 14 14 14 14 14 14 14 14 14 14 14
19 19 18 18 18 17 17 17 17 16 16 16 16 16 16 15 15 15 15 15 15 15 15 15 14 14 14 14 14 14 14 14 14 14 14 14 14 14 14 14 14 14 14
19 19 18 18 18 17 17 17 17 16 16 16 16 15 15 15 15 15 15 15 15 15 14 14 14 14 14 14 14 14 14 14 14 14 14 14 14 14 14 14 14 14 14
19 19 18 18 18 17 17 17 16 16 16 16 16 15 15 15 15 15 15 15 15 15 14 14 14 14 14 14 14 14 14 13 13 13 13 13 13 13 13 13 13 13 13
19 19 19 18 18 17 17 17 16 16 16 16 15 15 15 15 15 15 15 15 15 14 14 14 14 14 14 14 14 14 14 14 13 13 13 13 13 13 13 13 13 13 13
19 19 18 18 18 17 17 17 16 16 16 16 15 15 15 15 15 15 15 15 15 14 14 14 14 14 14 14 14 14 14 14 14 13 13 13 13 13 13 13 13 13 13
19 19 18 18 18 17 17 17 16 16 16 16 15 15 15 15 15 15 15 14 14 14 14 14 14 14 14 14 14 14 14 14 14 13 13 13 13 13 13 13 13 13 13
Wind_Speed
2 3 7 7 7 8 8 8 8 8 8 8 9 9 10 10 11 11 11 12 11 12 12 12 12 12 12 12 12 12 12 12 12 12 12 11 11 11 10 11 10 9 10
5 5 8 8 7 7 8 8 8 8 8 9 9 9 10 10 11 11 11 11 11 12 12 12 12 12 12 12 12 12 11 11 11 11 11 10 10 10 10 10 9 8 9
6 6 8 8 8 8 8 8 8 8 9 9 9 9 10 10 11 10 10 11 11 12 12 12 12 12 12 12 11 11 11 11 11 11 9 7 8 9 9 10 9 9 9
8 7 8 8 8 8 8 8 8 8 9 9 9 10 10 10 10 10 11 11 11 11 12 11 11 12 12 11 11 12 12 11 10 9 7 6 6 8 9 9 9 9 9
7 7 8 9 8 8 8 8 8 9 9 9 10 10 10 10 10 10 11 11 11 11 12 12 11 12 12 12 12 12 12 11 11 9 7 6 6 8 9 9 9 8 8
7 7 9 9 8 8 8 8 8 9 9 10 10 10 10 10 10 10 10 10 11 11 11 11 11 11 11 12 12 12 11 11 10 9 8 7 6 8 9 9 8 8 8
6 7 9 9 8 8 8 8 9 9 10 10 10 10 10 10 10 10 10 10 10 11 11 11 11 11 11 11 11 12 12 11 9 8 7 7 8 10 9 8 8 8 7
8 6 8 9 9 9 8 8 9 9 10 10 10 10 10 9 9 9 9 10 10 11 11 11 11 11 11 11 11 11 11 10 9 8 7 6 9 10 10 9 8 7 7
7 6 7 8 8 8 8 8 8 8 9 9 9 8 8 8 8 8 9 10 9 10 10 10 10 11 11 11 11 11 11 10 8 6 7 7 10 10 10 9 9 8 8
6 5 6 7 6 6 6 6 7 8 8 8 8 7 7 7 7 7 8 9 9 9 10 10 10 10 10 10 10 10 10 9 8 7 6 7 10 10 10 9 9 9 9
6 4 5 5 5 5 5 5 5 6 7 6 6 6 6 5 5 5 7 8 8 8 8 9 9 9 10 10 10 10 9 7 7 6 6 8 9 9 9 9 9 9 9
5 5 5 5 5 5 4 4 4 4 5 5 5 5 5 5 5 5 6 6 7 7 6 7 8 9 8 7 8 9 8 8 6 5 6 8 9 9 10 10 9 9 9
5 5 5 5 5 5 3 4 3 3 3 4 4 5 5 5 5 5 5 5 5 6 5 6 6 6 7 6 7 8 8 7 6 5 7 8 9 9 10 10 9 9 9
5 4 5 6 5 5 4 3 3 3 2 3 3 5 6 4 3 3 3 4 4 4 5 5 6 7 7 8 8 7 8 6 6 6 8 9 10 10 10 10 9 9 9
5 5 5 5 5 5 4 3 3 3 3 4 5 6 7 5 3 3 3 3 4 5 5 5 6 6 6 7 7 7 6 7 7 8 8 10 10 10 10 10 10 10 10
6 6 5 6 6 6 4 3 3 3 4 5 4 6 7 7 4 3 3 3 3 5 6 6 5 5 5 5 5 5 6 6 7 7 7 8 9 9 9 9 9 9 9
7 6 6 7 6 6 5 4 4 4 5 4 5 7 8 8 6 5 3 3 3 5 6 6 6 5 5 5 4 4 4 5 6 6 6 7 7 8 8 9 9 9 8
8 7 7 8 7 6 5 4 4 4 5 4 5 6 7 8 8 5 4 3 4 5 5 4 4 5 4 4 3 3 3 3 4 5 5 6 6 6 7 8 8 8 7
9 9 8 7 7 6 6 5 4 4 4 4 5 5 6 7 8 6 4 3 5 5 4 4 3 4 4 3 3 3 2 2 2 3 3 4 5 6 6 7 7 7 6
9 9 8 7 7 6 5 4 4 4 2 3 4 4 6 6 7 6 4 4 5 4 4 4 4 3 3 3 3 4 3 2 2 2 2 3 3 4 5 6 6 7 7
8 8 8 8 7 6 4 4 3 2 2 1 2 4 6 7 7 6 4 4 4 4 4 5 4 4 2 2 3 3 4 3 3 2 1 2 2 3 4 4 5 5 5
10 9 9 9 8 7 5 4 3 3 2 2 1 3 5 6 6 6 5 4 4 4 4 4 4 3 1 2 3 2 2 4 3 3 2 1 1 2 2 3 4 4 4
9 10 10 9 9 7 6 4 4 3 3 2 1 1 2 5 6 6 6 5 4 4 4 4 4 5 3 0 1 3 3 2 1 3 2 2 2 1 1 2 3 3 3
9 9 9 9 9 7 7 7 7 4 3 3 3 2 2 3 5 6 6 6 5 4 4 4 4 3 4 2 1 0 2 4 2 1 3 2 2 2 1 1 2 2 2
7 8 8 8 8 7 7 8 7 5 3 2 2 2 2 2 3 5 6 5 5 4 4 4 4 3 3 3 2 1 1 1 2 2 1 2 2 2 1 0 1 1 2
5 6 6 7 6 6 7 7 7 7 6 4 3 3 3 2 2 3 5 5 4 4 4 4 4 4 3 3 2 2 2 2 2 3 2 1 1 2 2 1 1 1 2
Wind_Direction
181 166 118 106 94 87 83 82 84 84 85 88 88 87 88 89 91 92 91 90 89 90 92 93 93 92 92 94 95 95 95 96 100 102 103 102 102 103 104 105 103 106 111
159 139 117 108 98 90 87 88 89 89 88 93 94 91 89 91 94 95 93 91 90 90 89 90 91 93 93 93 94 96 96 96 97 95 95 96 99 101 104 108 111 111 111
135 127 118 111 98 93 91 89 94 96 93 94 95 91 90 92 96 98 95 94 92 92 91 91 92 93 93 93 93 95 95 95 96 94 89 88 95 102 105 106 109 110 108
133 130 121 112 102 97 94 92 89 98 99 97 96 96 94 92 94 97 95 95 94 94 93 91 92 96 93 92 93 91 88 89 91 88 83 89 99 102 105 105 105 105 106
125 126 121 113 105 101 98 98 93 99 103 101 99 101 99 96 94 95 97 96 95 94 93 92 91 93 93 92 92 91 87 85 87 81 75 85 99 104 103 103 104 105 107
129 129 124 117 110 105 103 102 97 103 106 105 103 104 103 101 99 97 98 99 98 97 95 93 92 91 91 93 92 90 86 83 81 78 79 86 96 104 104 103 104 105 107
136 133 128 121 114 109 106 103 101 105 108 107 106 107 107 104 100 97 100 100 100 101 100 96 93 91 91 92 91 88 85 83 82 77 79 86 95 97 99 102 104 106 110
136 133 130 123 118 115 112 107 105 104 107 108 107 107 107 105 101 98 99 101 100 103 101 99 95 94 92 92 90 87 83 82 85 82 80 84 97 96 95 96 98 103 109
135 133 131 132 126 122 119 114 110 108 105 108 112 114 111 108 107 103 102 104 104 107 106 102 100 97 92 88 85 85 81 78 76 78 87 92 99 97 94 92 92 95 100
140 138 142 147 141 132 126 119 117 112 108 107 109 112 110 110 111 109 108 107 106 108 109 106 100 97 92 87 83 80 77 73 72 72 79 95 99 97 94 92 91 90 92
151 154 154 154 156 153 147 133 124 116 110 107 105 105 100 95 102 108 116 116 114 111 110 106 97 93 91 84 81 77 73 70 75 72 81 93 97 95 93 90 90 88 89
163 169 169 166 165 162 150 136 124 118 111 111 108 102 98 100 102 107 110 115 117 114 108 100 97 94 86 76 73 70 68 70 65 70 88 96 98 94 91 91 88 88 88
168 166 160 165 164 157 147 138 131 123 117 117 111 105 106 98 93 87 86 84 90 100 90 87 85 82 86 85 79 75 74 75 65 66 82 94 94 92 92 91 89 87 85
146 153 155 155 153 156 144 135 135 130 120 125 131 127 117 105 93 86 81 84 83 94 95 89 88 89 88 87 88 85 77 76 68 63 73 84 85 86 89 89 85 86 83
152 146 146 143 141 139 131 132 123 128 133 132 128 129 125 117 109 102 98 91 91 95 97 98 96 94 90 91 90 87 81 79 76 68 69 75 78 81 85 85 83 81 80
165 158 146 137 133 128 127 125 121 126 122 108 112 126 127 123 122 112 95 88 89 99 103 105 104 98 91 93 87 89 88 87 84 77 71 68 73 78 83 86 84 80 77
169 157 146 139 131 129 131 126 115 113 109 101 106 120 121 122 122 115 106 97 104 112 106 100 95 94 91 87 79 77 84 86 86 81 76 70 69 73 78 82 85 84 79
158 151 149 140 133 131 128 120 114 112 109 106 110 118 126 122 118 114 112 109 116 111 109 106 99 93 86 80 73 62 64 76 80 85 84 80 75 70 70 75 78 81 81
159 153 146 138 137 134 128 121 112 104 105 111 114 119 127 127 124 119 117 116 113 105 102 117 103 106 104 90 83 66 51 58 64 86 88 86 87 85 77 73 73 71 74
161 154 149 145 141 134 122 108 92 83 90 98 113 123 126 126 127 121 119 115 111 102 98 106 109 98 109 110 87 61 36 34 48 65 85 90 95 97 90 82 74 64 61
157 154 153 150 152 141 132 131 126 130 138 123 128 120 125 130 130 122 123 115 114 118 124 119 114 104 90 95 80 44 17 20 32 33 46 80 89 102 101 95 88 78 62
167 166 162 160 161 160 159 159 155 148 148 140 122 114 130 135 139 136 132 130 124 121 117 121 119 113 113 107 112 94 31 1 359 12 19 68 72 81 94 114 105 93 78
175 176 172 171 168 166 157 130 103 80 67 66 83 169 163 151 150 143 140 136 135 133 140 147 145 137 154 192 132 139 144 203 307 341 359 20 37 49 61 102 110 119 103
184 182 174 171 169 166 155 150 152 156 168 194 193 193 188 167 158 154 151 148 146 145 151 162 155 149 150 170 229 183 165 158 157 316 335 350 15 34 22 80 106 130 141
175 174 171 166 166 164 160 160 160 165 179 178 171 176 187 189 177 167 161 156 157 159 165 165 157 155 158 168 178 163 118 102 122 149 234 313 350 338 329 215 150 147 158
156 156 157 158 166 167 164 164 168 173 172 167 179 185 195 200 207 191 173 169 171 170 176 178 172 166 169 167 174 164 159 162 171 157 180 227 266 299 318 300 218 189 175
Height
1527 1526 1525 1524 1523 1523 1522 1521 1521 1520 1520 1520 1520 1520 1520 1519 1519 1519 1520 1520 1520 1520 1520 1520 1520 1520 1521 1521 1522 1522 1523 1523 1524 1524 1525 1526 1526 1527 1527 1528 1528 1529 1529
1527 1526 1525 1524 1523 1523 1522 1521 1521 1520 1520 1520 1520 1520 1520 1520 1520 1520 1520 1521 1521 1521 1521 1521 1522 1522 1522 1523 1523 1524 1524 1525 1525 1526 1526 1527 1528 1528 1528 1529 1529 1529 1530
1527 1526 1526 1525 1524 1523 1522 1522 1521 1520 1520 1520 1521 1521 1521 1521 1521 1521 1521 1521 1522 1522 1522 1522 1523 1523 1523 1524 1524 1525 1525 1526 1526 1527 1527 1528 1529 1529 1529 1530 1530 1530 1531
1528 1527 1526 1525 1524 1523 1523 1522 1521 1520 1520 1520 1521 1521 1522 1522 1522 1522 1522 1523 1523 1523 1523 1524 1524 1524 1525 1525 1526 1526 1527 1527 1528 1528 1528 1529 1529 1530 1530 1531 1531 1531 1531
1528 1527 1527 1526 1525 1524 1523 1522 1520 1519 1519 1520 1521 1522 1523 1523 1523 1523 1523 1524 1524 1524 1524 1525 1525 1526 1526 1527 1527 1528 1528 1528 1529 1529 1530 1530 1530 1531 1531 1531 1531 1531 1532
1529 1528 1527 1526 1526 1524 1523 1522 1520 1519 1519 1521 1522 1523 1524 1524 1524 1524 1525 1525 1525 1525 1526 1526 1527 1527 1528 1528 1528 1529 1529 1530 1530 1530 1531 1531 1531 1531 1531 1531 1532 1532 1532
1529 1529 1528 1528 1527 1525 1524 1523 1521 1520 1521 1522 1523 1524 1525 1525 1526 1526 1526 1526 1526 1526 1527 1527 1528 1529 1529 1529 1530 1530 1530 1531 1531 1531 1532 1532 1532 1532 1532 1532 1532 1532 1532
1530 1530 1529 1529 1528 1527 1526 1525 1524 1523 1523 1524 1525 1526 1526 1527 1527 1527 1527 1527 1527 1527 1528 1529 1529 1530 1530 1531 1531 1531 1532 1532 1532 1533 1533 1533 1533 1533 1533 1533 1533 1533 1533
1531 1531 1530 1530 1529 1528 1528 1527 1527 1526 1526 1526 1527 1527 1528 1528 1528 1528 1528 1529 1529 1529 1529 1530 1531 1531 1532 1532 1533 1533 1533 1534 1534 1534 1534 1534 1534 1534 1534 1533 1533 1533 1533
1532 1532 1531 1531 1530 1530 1529 1529 1528 1528 1528 1528 1529 1529 1529 1529 1530 1530 1530 1530 1530 1531 1531 1532 1532 1533 1533 1534 1534 1534 1534 1535 1535 1535 1535 1535 1535 1535 1534 1534 1534 1534 1534
1532 1532 1532 1532 1532 1531 1530 1530 1530 1530 1530 1530 1530 1531 1531 1531 1531 1531 1531 1531 1532 1532 1533 1533 1534 1534 1534 1535 1535 1536 1536 1536 1536 1536 1536 1536 1536 1536 1535 1535 1535 1535 1534
1532 1533 1533 1533 1532 1532 1532 1532 1531 1531 1531 1532 1532 1532 1532 1532 1532 1532 1533 1533 1533 1533 1534 1534 1535 1535 1536 1536 1536 1537 1537 1537 1537 1537 1537 1537 1537 1537 1536 1536 1536 1536 1535
1532 1533 1533 1533 1533 1533 1533 1533 1533 1533 1533 1533 1533 1533 1533 1533 1533 1533 1533 1534 1534 1534 1535 1536 1536 1536 1537 1537 1538 1538 1538 1538 1538 1538 1538 1538 1538 1538 1537 1537 1537 1537 1536
1532 1533 1533 1533 1533 1533 1534 1534 1534 1534 1534 1534 1534 1534 1534 1534 1534 1534 1534 1535 1535 1535 1536 1536 1537 1538 1538 1539 1539 1539 1539 1539 1539 1539 1539 1539 1539 1539 1539 1538 1537 1538 1537
1532 1532 1533 1533 1533 1534 1534 1534 1534 1534 1535 1535 1535 1535 1535 1535 1535 1536 1536 1536 1536 1537 1537 1537 1538 1539 1539 1540 1540 1541 1541 1541 1541 1541 1541 1541 1541 1540 1540 1539 1539 1538 1538
1532 1532 1533 1533 1534 1534 1534 1534 1535 1535 1535 1535 1535 1536 1536 1536 1536 1536 1537 1537 1537 1538 1538 1538 1539 1539 1540 1541 1541 1541 1542 1542 1542 1542 1542 1542 1542 1541 1541 1540 1540 1539 1539
1530 1531 1532 1533 1534 1534 1534 1535 1535 1535 1535 1536 1536 1536 1536 1537 1537 1537 1537 1537 1538 1538 1539 1539 1540 1540 1541 1541 1542 1542 1542 1543 1543 1543 1543 1543 1543 1542 1542 1541 1541 1540 1540
1530 1531 1532 1533 1533 1534 1535 1535 1535 1535 1536 1536 1536 1536 1537 1537 1537 1537 1537 1538 1538 1539 1539 1539 1540 1540 1541 1542 1542 1543 1543 1543 1544 1544 1544 1544 1544 1543 1543 1542 1542 1541 1541
1529 1530 1531 1532 1533 1534 1534 1535 1535 1536 1536 1536 1536 1536 1537 1537 1537 1537 1538 1538 1538 1539 1539 1540 1540 1541 1541 1542 1543 1543 1544 1544 1544 1544 1544 1544 1544 1544 1544 1543 1543 1542 1542
1528 1529 1530 1531 1532 1533 1534 1534 1535 1535 1536 1536 1536 1536 1536 1537 1537 1537 1538 1538 1538 1539 1539 1540 1540 1541 1542 1542 1543 1543 1544 1544 1545 1545 1545 1545 1545 1544 1544 1544 1543 1543 1542
1527 1528 1529 1530 1531 1532 1533 1533 1534 1534 1535 1535 1535 1536 1536 1536 1537 1537 1537 1538 1538 1538 1539 1540 1540 1541 1542 1542 1543 1544 1544 1545 1545 1545 1545 1545 1545 1544 1544 1544 1544 1543 1543
1525 1526 1527 1529 1530 1531 1532 1532 1533 1533 1534 1534 1535 1535 1535 1536 1536 1536 1537 1537 1537 1538 1539 1539 1540 1540 1541 1542 1543 1543 1544 1546 1545 1545 1545 1545 1545 1544 1544 1544 1544 1543 1543
1523 1524 1526 1527 1528 1529 1530 1531 1532 1533 1533 1533 1534 1534 1535 1535 1535 1536 1536 1536 1537 1537 1538 1539 1539 1540 1540 1541 1542 1543 1544 1544 1544 1545 1545 1545 1544 1544 1544 1544 1543 1543 1542
1521 1522 1524 1525 1527 1528 1529 1530 1530 1531 1531 1532 1532 1533 1533 1534 1534 1535 1535 1536 1536 1537 1537 1538 1539 1539 1540 1540 1541 1542 1543 1543 1543 1543 1544 1544 1544 1543 1543 1543 1543 1542 1542
1518 1520 1522 1524 1525 1526 1527 1528 1529 1529 1530 1531 1531 1531 1532 1533 1533 1534 1534 1535 1535 1536 1537 1537 1537 1538 1539 1539 1540 1540 1541 1541 1542 1542 1542 1542 1542 1542 1542 1542 1542 1541 1541
1516 1518 1520 1521 1523 1524 1525 1526 1527 1528 1528 1529 1529 1530 1530 1531 1532 1533 1533 1534 1534 1535 1536 1536 1536 1537 1537 1538 1539 1539 1539 1540 1540 1540 1540 1540 1540 1541 1541 1541 1541 1540 1540